Time,TemperatureF,DewpointF,PressureIn,WindDirection,WindDirectionDegrees,WindSpeedMPH,WindSpeedGustMPH,Humidity,HourlyPrecipIn,Conditions,Clouds,dailyrainin,SoftwareType,DateUTC
2013-03-04 09:00:00,42.0,36.0,29.93,North,-999,-999.0,-999.0,79,-99.99,,,-99.99,,2013-03-04 09:00:00,
2013-03-04 09:41:00,42.0,36.0,29.93,North,-999,-999.0,-999.0,79,-99.99,,,-99.99,,2013-03-04 09:41:00,
2013-03-04 09:51:00,42.0,36.0,29.93,North,-999,-999.0,-999.0,79,-99.99,,,-99.99,,2013-03-04 09:51:00,
2013-03-04 11:00:00,42.0,-99.9,29.89,North,-999,-999.0,-999.0,-999,-99.99,,,-99.99,,2013-03-04 11:00:00,
2013-03-04 11:42:00,42.0,-99.9,29.89,North,-999,-999.0,-999.0,-999,-99.99,,,-99.99,,2013-03-04 11:42:00,
2013-03-04 11:52:00,42.0,-99.9,29.89,North,-999,-999.0,-999.0,-999,-99.99,,,-99.99,,2013-03-04 11:52:00,
2013-03-04 12:00:00,42.0,-99.9,29.88,North,-999,-999.0,-999.0,-999,-99.99,,,-99.99,,2013-03-04 12:00:00,
2013-03-04 12:43:00,42.0,-99.9,29.88,North,-999,-999.0,-999.0,-999,-99.99,,,-99.99,,2013-03-04 12:43:00,
2013-03-04 12:53:00,42.0,-99.9,29.88,North,-999,-999.0,-999.0,-999,-99.99,,,-99.99,,2013-03-04 12:53:00,
2013-03-04 13:00:00,43.0,35.0,29.85,North,-999,-999.0,-999.0,73,-99.99,,,-99.99,,2013-03-04 13:00:00,
2013-03-04 13:41:00,43.0,35.0,29.85,North,-999,-999.0,-999.0,73,-99.99,,,-99.99,,2013-03-04 13:41:00,
2013-03-04 13:51:00,43.0,35.0,29.85,North,-999,-999.0,-999.0,73,-99.99,,,-99.99,,2013-03-04 13:51:00,
2013-03-04 14:00:00,43.0,35.0,29.83,North,-999,-999.0,-999.0,73,-99.99,,,-99.99,,2013-03-04 14:00:00,
2013-03-04 14:41:00,43.0,35.0,29.83,North,-999,-999.0,-999.0,73,-99.99,,,-99.99,,2013-03-04 14:41:00,
2013-03-04 14:52:00,43.0,35.0,29.83,North,-999,-999.0,-999.0,73,-99.99,,,-99.99,,2013-03-04 14:52:00,
2013-03-04 15:00:00,42.0,35.0,29.80,North,-999,-999.0,-999.0,76,-99.99,,,-99.99,,2013-03-04 15:00:00,
2013-03-04 15:31:00,42.0,35.0,29.80,North,-999,-999.0,-999.0,76,-99.99,,,-99.99,,2013-03-04 15:31:00,
2013-03-04 15:41:00,42.0,35.0,29.80,North,-999,-999.0,-999.0,76,-99.99,,,-99.99,,2013-03-04 15:41:00,
2013-03-04 15:51:00,42.0,35.0,29.80,North,-999,-999.0,-999.0,76,-99.99,,,-99.99,,2013-03-04 15:51:00,
2013-03-04 16:00:00,41.0,34.0,29.78,North,-999,-999.0,-999.0,76,-99.99,,,-99.99,,2013-03-04 16:00:00,
2013-03-04 16:41:00,41.0,34.0,29.78,North,-999,-999.0,-999.0,76,-99.99,,,-99.99,,2013-03-04 16:41:00,
2013-03-04 16:51:00,41.0,34.0,29.78,North,-999,-999.0,-999.0,76,-99.99,,,-99.99,,2013-03-04 16:51:00,
2013-03-04 17:00:00,41.0,35.0,29.78,North,-999,-999.0,-999.0,77,-99.99,,,-99.99,,2013-03-04 17:00:00,
2013-03-04 17:42:00,41.0,35.0,29.78,North,-999,-999.0,-999.0,77,-99.99,,,-99.99,,2013-03-04 17:42:00,
2013-03-04 17:52:00,41.0,35.0,29.78,North,-999,-999.0,-999.0,77,-99.99,,,-99.99,,2013-03-04 17:52:00,
2013-03-04 18:00:00,41.0,36.0,29.78,North,-999,-999.0,-999.0,82,-99.99,,,-99.99,,2013-03-04 18:00:00,
2013-03-04 18:41:00,41.0,36.0,29.78,North,-999,-999.0,-999.0,82,-99.99,,,-99.99,,2013-03-04 18:41:00,
2013-03-04 18:51:00,41.0,36.0,29.78,North,-999,-999.0,-999.0,82,-99.99,,,-99.99,,2013-03-04 18:51:00,
2013-03-04 20:00:00,44.0,39.0,29.75,North,-999,-999.0,-999.0,81,-99.99,,,-99.99,,2013-03-04 20:00:00,
2013-03-04 20:41:00,44.0,39.0,29.75,North,-999,-999.0,-999.0,81,-99.99,,,-99.99,,2013-03-04 20:41:00,
2013-03-04 20:52:00,44.0,39.0,29.75,North,-999,-999.0,-999.0,81,-99.99,,,-99.99,,2013-03-04 20:52:00,